Weather History for KHJO - November, 2011

Change the Weather History Date:

Monday, November 7, 2011

  Actual Average Record
Temperature  
Mean Temperature 46 °F 55 °F  
Max Temperature 59 °F 69 °F 82 °F (2012)
Min Temperature 33 °F 41 °F 33 °F (2011)
Degree Days  
Heating Degree Days 19    
Month to date heating degree days 93  
Since 1 July heating degree days 161  
Cooling Degree Days 0    
Month to date cooling degree days 0  
Year to date cooling degree days 1664  
Moisture  
Dew Point 38 °F    
Average Humidity 68    
Maximum Humidity 92    
Minimum Humidity 43    
Precipitation  
Precipitation T in 0.04 in 0.36 in (2002)
Month to date precipitation 0.22 0.32  
Year to date precipitation 6.92 7.79  
Since 1 July precipitation 0.74 1.03  
Snow  
Snow 0.00 in - - ()
Month to date snowfall 0.0  
Since 1 July snowfall 0.0  
Since 1 September snowfall 0.0  
Snow Depth 0.00 in    
Sea Level Pressure  
Sea Level Pressure 30.22 in    
Wind  
Wind Speed 4 mph (NW)    
Max Wind Speed 12 mph    
Max Gust Speed -    
Visibility 6 miles    
Events Fog    
T = Trace of Precipitation, MM = Missing Value Source: NWS Daily Summary

Daily Weather History Graph

Daily Weather History Graph

Search for Another Location

Airport or City:

Trip Planner

Search our weather history database for the weather conditions in past years. The results will help you decide how hot, cold, wet, or windy it might be!

Date:

Astronomy

Nov. 07, 2011 Rise Set
Actual Time 6:27 AM PST 4:56 PM PST
Civil Twilight 6:00 AM PST 5:23 PM PST
Nautical Twilight 5:29 AM PST 5:54 PM PST
Astronomical Twilight 4:59 AM PST 6:24 PM PST
Moon 3:07 PM PST (11/7) 3:38 AM PST (11/7)
Length of Visible Light 11h 23m
Length of Day
10h 29m
Waxing Gibbous, 92% of the Moon is Illuminated
Nov 7
Waxing Gibbous
Nov 10
Full
Nov 18
Last Quarter
Nov 24
New
Dec 2
First Quarter

Hourly Weather History & Observations

Time (PST) Temp. Windchill Dew Point Humidity Pressure Visibility Wind Dir Wind Speed Gust Speed Precip Events Conditions
12:53 AM 43.0 °F - 39.0 °F 86% 30.14 in 10.0 mi Calm Calm - N/A   Clear
1:53 AM 41.0 °F 39.0 °F 37.9 °F 89% 30.14 in 8.0 mi NW 3.5 mph - N/A   Clear
2:53 AM 41.0 °F 38.0 °F 37.9 °F 89% 30.14 in 7.0 mi NW 4.6 mph - N/A   Clear
3:53 AM 39.9 °F 36.7 °F 37.0 °F 89% 30.15 in 6.0 mi NW 4.6 mph - N/A   Clear
5:44 AM 37.4 °F - 33.8 °F 87% 30.17 in 2.0 mi Calm Calm - N/A   Clear
5:53 AM 36.0 °F - 34.0 °F 93% 30.19 in 1.8 mi Calm Calm - N/A   Clear
6:05 AM 35.6 °F - 33.8 °F 93% 30.18 in 3.0 mi Calm Calm - N/A   Clear
6:16 AM 35.6 °F - 33.8 °F 93% 30.18 in 1.2 mi Calm Calm - N/A   Partly Cloudy
6:18 AM 35.6 °F - 33.8 °F 93% 30.19 in 0.8 mi Calm Calm - N/A   Mist
6:39 AM 33.8 °F - 30.2 °F 87% 30.19 in 0.2 mi Calm Calm - N/A Fog Fog
6:53 AM 35.1 °F - 33.1 °F 92% 30.21 in 0.2 mi Calm Calm - N/A Fog Fog
7:53 AM 39.0 °F - 37.0 °F 93% 30.24 in 0.8 mi Calm Calm - 0.00 in   Mist
8:01 AM 39.2 °F - 37.4 °F 93% 30.23 in 2.5 mi Calm Calm - N/A   Mostly Cloudy
8:09 AM 41.0 °F 38.0 °F 39.2 °F 93% 30.23 in 4.0 mi NW 4.6 mph - N/A   Scattered Clouds
8:53 AM 45.0 °F 41.8 °F 41.0 °F 86% 30.25 in 7.0 mi NW 5.8 mph - N/A   Clear
9:53 AM 50.0 °F - 41.0 °F 71% 30.26 in 8.0 mi WNW 6.9 mph - N/A   Clear
10:33 AM 53.6 °F - 42.8 °F 67% 30.25 in 8.0 mi NNW 6.9 mph - N/A   Mostly Cloudy
10:53 AM 52.0 °F - 42.1 °F 69% 30.26 in 9.0 mi NW 9.2 mph - N/A   Mostly Cloudy
11:30 AM 53.6 °F - 42.8 °F 67% 30.24 in 9.0 mi NNW 8.1 mph - N/A   Partly Cloudy
11:53 AM 55.0 °F - 42.1 °F 62% 30.25 in 10.0 mi NW 9.2 mph - N/A   Partly Cloudy
12:53 PM 57.0 °F - 41.0 °F 55% 30.23 in 9.0 mi Calm Calm - N/A   Scattered Clouds
1:53 PM 57.9 °F - 39.9 °F 51% 30.22 in 10.0 mi NNW 8.1 mph - N/A   Scattered Clouds
3:53 PM 57.0 °F - 36.0 °F 45% 30.23 in 10.0 mi NW 8.1 mph - N/A   Clear
4:53 PM 54.0 °F - 39.0 °F 57% 30.25 in 10.0 mi NNW 3.5 mph - N/A   Clear
6:53 PM 45.0 °F - 37.0 °F 74% 30.27 in 9.0 mi Calm Calm - N/A   Clear
7:53 PM 42.1 °F - 37.0 °F 82% 30.27 in 9.0 mi Calm Calm - N/A   Clear
8:53 PM 39.9 °F - 37.0 °F 89% 30.28 in 8.0 mi Calm Calm - N/A   Clear
9:53 PM 39.9 °F - 37.0 °F 89% 30.28 in 6.0 mi Calm Calm - N/A   Clear
10:53 PM 39.0 °F - 37.9 °F 96% 30.29 in 4.0 mi Calm Calm - N/A   Clear
11:53 PM 37.9 °F 33.5 °F 35.1 °F 89% 30.29 in 4.0 mi ENE 5.8 mph - N/A   Clear